Theta_e
309 310 310 311 310 310 309 309 308 307 306 304 302 302 302 300 299 291 285 286 285 277 277 284 282 280 278 281 276 279 279 279 280 273 272 271 270 276 275 276 275 273 271 275 276 274 272 281 287 286 283 285 286 288
309 309 309 310 310 309 309 309 308 306 305 303 302 301 302 301 299 293 284 287 287 279 278 288 287 288 286 285 281 282 281 282 281 275 273 276 275 276 275 275 281 277 278 276 279 278 280 282 284 284 284 284 286 287
308 309 309 309 309 309 308 308 307 306 305 303 301 300 300 301 299 293 283 284 282 273 279 280 278 287 290 289 290 281 283 285 283 284 279 277 274 278 274 276 277 279 280 276 277 279 280 282 283 283 283 284 285 286
307 307 308 308 308 308 308 307 307 306 305 302 300 299 300 299 297 292 284 284 282 278 268 273 284 285 287 288 289 288 286 287 285 284 280 278 276 281 275 278 277 278 280 277 276 279 280 282 282 282 282 283 283 283
306 307 308 308 308 307 307 307 306 304 301 300 299 299 298 297 296 287 283 283 281 278 269 269 278 279 282 284 284 287 286 283 282 280 278 277 280 278 279 279 274 278 277 276 275 279 280 280 281 282 281 281 282 282
306 307 307 307 307 307 306 305 303 301 300 299 298 298 297 295 292 283 275 283 282 280 271 267 272 270 268 276 281 281 283 282 281 279 278 281 282 279 276 274 279 279 279 279 278 279 280 280 280 279 280 280 280 280
306 306 307 307 306 306 305 303 301 300 299 298 298 296 296 295 284 276 276 282 285 282 271 268 267 273 268 271 282 281 282 280 279 279 277 276 279 278 276 271 277 277 275 275 274 276 279 277 277 274 274 272 270 268
306 306 306 306 305 304 302 301 300 299 298 298 296 295 295 293 288 279 282 286 283 276 271 262 267 269 272 277 271 277 273 278 272 274 271 266 270 271 268 275 277 275 275 273 273 272 274 273 273 273 272 272 272 272
305 306 305 305 304 302 301 300 300 299 298 296 296 293 284 280 274 282 288 285 280 276 266 259 263 264 273 275 273 273 265 269 265 259 259 262 261 266 270 273 273 272 271 271 270 268 271 271 269 269 268 269 269 269
305 305 305 305 303 301 301 300 299 299 297 295 284 275 274 279 286 285 274 270 271 266 265 263 264 266 271 268 262 262 260 260 263 261 259 258 261 265 268 266 267 268 268 266 270 271 269 268 265 265 265 262 263 263
304 304 304 303 301 300 300 299 299 298 293 278 272 271 280 283 274 266 265 267 262 265 260 263 262 266 269 265 267 266 261 256 260 263 262 256 263 269 263 259 258 258 260 261 261 262 260 262 263 262 263 259 258 259
304 303 303 302 301 300 299 299 298 286 283 281 277 276 270 266 265 266 260 260 260 265 261 264 264 266 264 266 264 262 260 259 263 255 260 261 268 264 259 259 258 256 255 260 258 261 260 263 258 260 259 260 258 256
303 303 302 301 300 300 299 298 295 291 284 275 271 267 267 263 264 265 262 263 261 259 262 263 263 265 265 267 260 260 262 262 255 260 261 265 265 262 257 254 257 254 254 257 259 257 258 258 257 258 259 257 256 258
303 302 301 300 300 299 299 296 293 286 277 272 269 268 266 262 264 266 265 265 265 262 261 262 265 264 258 263 258 263 257 256 259 262 264 263 262 259 256 253 255 258 255 259 258 258 260 260 260 260 259 257 259 262
302 301 300 299 299 299 297 294 290 279 273 269 268 268 262 264 260 257 256 259 261 262 264 263 262 267 257 260 258 257 261 260 261 265 263 263 260 256 257 256 256 259 259 259 258 260 261 262 262 262 261 261 261 261
301 300 298 299 299 297 295 290 281 274 268 267 262 263 259 267 262 258 257 261 260 264 261 263 258 261 260 259 261 262 263 263 266 260 262 258 258 257 257 256 257 257 259 261 262 261 262 261 260 257 256 259 259 257
298 289 299 298 297 295 293 284 277 269 272 267 266 259 264 266 266 262 261 263 265 268 264 259 264 264 260 259 261 259 264 264 260 259 256 256 259 260 258 259 260 262 263 262 262 261 258 255 256 259 259 258 257 257
291 297 298 296 292 291 284 275 270 268 267 267 265 263 259 261 261 260 258 260 267 265 265 268 265 262 263 264 263 262 258 256 255 257 258 257 257 257 259 262 261 261 261 260 259 256 256 257 259 258 256 257 256 257
296 296 295 294 290 284 279 275 272 267 269 260 259 259 259 259 260 260 259 260 260 261 266 263 266 267 267 263 264 259 258 260 262 261 260 257 258 259 260 261 261 261 260 257 257 257 256 256 256 257 258 258 257 257
296 295 294 293 288 279 275 271 269 267 265 264 258 259 258 259 259 257 258 259 262 262 265 266 267 265 265 263 262 261 261 262 267 262 260 261 260 260 261 261 261 259 259 257 258 259 259 259 258 258 257 257 257 257
293 293 292 284 277 275 273 269 265 264 265 262 257 259 259 258 260 261 261 258 262 262 265 262 259 257 256 257 258 257 259 261 263 265 264 261 261 261 262 261 261 260 259 258 257 256 257 256 257 257 256 256 257 256
289 292 284 282 274 269 268 263 266 263 264 259 260 258 258 259 259 259 258 261 259 258 258 258 256 257 257 259 259 259 258 260 260 264 264 263 261 260 260 261 261 259 258 256 256 256 256 257 257 257 256 256 257 256
291 288 280 276 272 269 267 264 265 261 262 262 259 261 259 258 257 259 261 257 256 256 256 256 254 255 258 258 261 262 262 263 262 262 262 261 261 261 260 259 259 258 257 256 257 256 255 256 256 256 255 255 255 255
288 281 275 270 269 266 262 261 260 259 258 260 259 260 259 257 257 259 262 255 255 255 255 256 259 258 259 260 260 260 260 262 261 261 263 262 260 259 259 257 257 256 256 256 255 253 253 253 255 254 253 252 253 253
280 276 275 267 263 265 264 260 259 260 259 256 259 259 260 256 259 257 260 255 253 252 255 258 260 261 262 259 259 259 260 262 261 259 260 262 260 259 258 257 256 255 255 252 252 252 252 252 252 252 252 250 251 252
273 272 269 266 264 268 265 264 263 262 260 258 258 255 254 258 260 264 258 251 251 252 253 256 260 260 260 261 260 259 258 259 261 259 258 260 260 259 257 257 256 255 253 251 250 250 250 250 249 250 250 251 251 249
269 266 265 262 266 267 266 262 259 261 260 262 261 257 260 262 265 258 252 252 250 250 252 253 254 259 259 258 258 258 259 259 260 259 258 257 257 256 256 255 254 253 252 251 249 248 248 248 249 249 249 248 246 246
265 262 268 264 264 265 266 259 261 263 261 257 263 263 266 267 263 251 250 254 250 251 250 249 251 253 255 256 257 258 258 259 258 257 257 256 256 255 253 252 252 258 253 251 251 252 250 250 249 247 246 245 245 247
262 260 265 261 260 261 257 260 258 251 251 251 261 256 253 249 248 247 250 250 251 249 249 250 250 251 253 254 254 254 257 258 257 256 256 255 254 254 252 249 250 252 252 251 256 258 255 252 249 247 245 245 246 244
261 256 261 256 257 257 255 254 251 249 250 249 249 250 248 247 247 247 247 248 250 248 248 249 251 254 253 253 252 252 251 251 253 257 255 254 254 252 252 253 254 254 253 251 251 249 255 249 249 246 246 245 246 247
253 256 255 253 251 253 254 255 254 253 251 249 247 249 246 246 247 247 247 247 248 248 249 249 250 252 253 252 252 252 252 251 251 252 252 252 253 253 253 254 254 252 251 250 251 250 249 249 246 244 245 246 245 246
255 254 256 252 251 255 256 257 257 255 253 252 249 248 248 249 248 247 248 248 247 247 250 250 251 251 251 251 250 251 253 253 253 254 253 254 255 256 255 255 254 253 253 253 252 250 248 245 244 245 244 244 245 244
256 256 255 255 254 253 256 258 257 255 255 253 251 251 251 252 253 251 249 248 249 250 251 251 250 251 252 253 253 253 253 253 253 259 259 260 258 257 255 254 254 253 252 251 250 248 247 245 244 242 243 244 244 244
Wind_Speed
30 28 26 26 26 25 23 21 19 21 17 15 12 9 8 7 5 4 1 1 4 3 2 1 0 2 2 1 1 3 2 2 1 3 1 3 1 2 1 4 8 6 6 3 0 2 4 5 4 3 2 5 3 3
30 29 28 27 26 25 23 21 21 20 20 17 13 10 8 8 6 5 2 2 2 5 3 2 2 1 1 2 1 2 2 2 2 2 2 3 2 2 3 3 1 1 3 4 4 3 2 4 2 3 3 3 4 2
31 29 27 27 27 25 24 23 22 21 20 17 13 9 7 9 6 4 3 3 4 4 3 1 4 3 3 2 1 2 1 2 1 0 1 2 3 1 2 2 2 2 3 1 3 4 4 6 4 5 4 3 4 6
31 30 29 28 27 26 25 24 23 21 19 16 14 10 8 7 6 4 3 2 4 3 4 6 3 2 2 0 4 4 3 2 2 2 2 3 2 1 2 3 1 1 4 1 1 2 1 6 6 5 6 8 10 9
32 31 29 28 28 27 25 24 23 21 19 17 14 11 9 10 8 6 3 1 2 6 4 4 0 3 3 3 4 5 4 3 2 1 2 2 1 2 2 2 2 2 1 0 2 3 1 2 5 7 8 7 8 9
32 31 29 29 28 27 26 26 24 22 20 18 14 12 11 11 8 3 4 3 1 3 5 3 2 3 4 3 2 3 1 2 1 2 2 2 1 2 2 1 1 1 1 2 2 3 3 4 5 5 5 6 8 8
33 31 30 29 29 28 28 27 25 23 20 18 15 13 10 11 4 3 5 3 3 3 4 5 5 3 1 2 1 1 2 1 2 1 1 2 1 4 1 2 3 2 2 2 3 3 5 4 1 4 5 4 4 3
34 32 32 31 30 30 29 27 26 24 21 18 16 13 12 14 8 4 3 4 3 5 4 3 5 4 2 1 1 2 1 1 3 1 2 2 3 1 0 4 4 5 3 5 7 3 1 2 2 4 2 4 6 7
34 33 33 32 32 32 30 29 27 25 22 20 20 17 5 5 2 2 2 6 3 5 3 4 4 4 4 1 0 1 2 0 2 2 1 2 3 1 5 2 2 4 2 5 5 5 6 7 5 6 6 8 5 3
34 34 33 33 34 33 31 29 28 27 26 23 5 4 2 1 2 1 7 4 5 5 5 2 2 3 2 2 3 2 2 1 2 4 1 4 4 4 3 2 3 4 5 4 4 4 5 5 4 2 2 1 1 2
35 34 33 35 35 34 33 31 30 29 17 3 3 3 2 3 4 4 2 4 3 4 1 1 3 2 3 2 2 1 2 1 4 5 4 3 3 4 4 5 3 4 4 3 1 2 1 2 2 2 4 4 3 2
35 35 35 36 36 35 34 34 33 8 4 7 7 6 4 5 4 6 1 3 3 6 2 4 3 2 2 2 4 4 3 4 4 1 5 3 5 4 4 4 4 4 3 1 2 3 4 5 3 3 2 3 4 3
36 34 37 38 37 36 36 35 18 29 13 5 6 6 5 4 5 6 5 4 2 3 4 2 1 1 3 3 3 4 4 4 1 5 3 6 4 4 4 3 3 4 1 2 4 4 5 4 4 4 4 3 3 3
36 35 37 38 37 36 36 27 28 13 6 4 5 2 5 3 6 6 6 5 3 3 4 3 3 2 1 5 1 4 3 3 5 4 4 4 4 5 5 3 1 2 3 5 5 4 6 5 5 4 4 3 4 7
37 36 36 35 36 35 29 27 15 6 4 3 5 5 5 3 2 1 1 2 1 3 3 3 4 3 3 4 2 3 5 3 5 6 4 4 3 2 3 3 3 5 5 5 3 4 5 4 4 5 6 5 7 6
37 34 14 36 36 32 29 16 6 4 4 4 4 3 2 2 1 1 1 1 2 3 2 3 4 5 2 4 3 6 6 5 5 4 4 1 0 1 1 2 2 3 4 4 4 3 5 7 6 4 5 7 6 5
25 1 37 37 35 31 22 6 4 5 3 4 1 0 2 2 4 3 3 3 2 4 3 3 4 7 2 3 2 5 6 4 3 3 1 2 3 3 2 3 4 4 6 6 6 7 5 4 4 6 9 7 6 6
7 27 39 39 25 14 4 5 5 4 2 1 3 3 1 2 3 1 1 1 3 3 3 5 6 3 5 5 5 5 2 1 1 2 2 2 3 3 3 6 5 6 6 6 5 3 4 5 7 5 5 6 5 4
27 27 40 34 13 6 5 2 4 4 1 2 0 1 2 1 1 2 2 2 1 1 4 2 3 4 4 4 4 2 3 3 3 1 2 3 3 3 4 5 6 7 7 4 4 3 2 4 2 3 3 4 3 3
41 40 34 22 11 4 5 2 3 5 4 3 2 2 3 2 1 2 2 2 2 2 2 2 5 3 2 1 0 2 2 3 7 4 3 3 3 4 5 3 4 3 4 3 4 6 4 2 2 4 4 3 5 6
31 22 19 10 5 5 5 3 4 3 3 4 2 2 1 2 3 2 0 0 3 3 2 2 1 1 2 1 1 1 2 2 3 3 5 3 1 2 3 4 4 4 4 4 3 2 4 4 4 4 5 5 5 4
11 22 5 4 5 4 5 2 5 2 4 1 2 1 3 2 1 2 1 2 4 3 2 2 3 3 2 2 3 3 0 4 4 6 10 10 4 3 3 2 3 4 3 3 3 3 3 4 5 5 5 5 5 5
21 5 5 4 6 6 0 2 5 4 5 3 1 4 3 1 3 1 1 3 3 2 1 1 2 3 5 1 3 6 5 6 6 6 6 6 6 5 5 4 3 3 4 4 3 3 3 6 5 5 4 4 3 4
9 5 4 4 5 4 2 4 3 4 3 3 3 2 2 3 1 3 4 3 3 1 2 1 4 4 3 3 3 2 3 3 5 5 4 5 6 5 4 5 4 4 3 1 2 2 3 3 5 4 4 3 6 5
7 1 5 4 3 6 4 2 2 4 3 3 4 1 3 2 2 1 5 3 1 1 2 1 1 1 4 3 3 2 3 1 4 6 3 4 6 5 4 4 4 4 3 3 3 2 3 3 4 5 5 3 6 7
6 1 4 6 2 5 6 6 7 7 5 3 3 1 2 4 2 7 4 1 1 2 1 1 3 3 2 1 4 3 2 1 3 5 3 3 2 2 3 3 2 1 1 1 1 2 3 3 3 5 4 6 7 6
5 5 1 1 3 5 4 3 3 4 5 7 5 4 4 4 7 3 1 1 2 1 0 1 1 0 4 4 3 3 2 2 3 7 6 5 5 4 2 3 3 2 1 1 1 2 2 3 3 3 4 4 3 3
4 4 7 3 3 1 5 3 5 6 5 2 6 5 9 8 4 1 1 1 1 2 2 2 3 4 4 3 3 3 4 7 9 8 6 5 5 4 3 2 1 4 1 0 2 3 2 1 2 2 2 2 3 3
3 2 4 4 3 4 4 2 2 1 1 2 4 4 3 0 2 2 1 0 1 2 2 3 3 3 4 5 4 3 3 6 7 6 5 3 2 1 2 2 2 1 2 2 4 3 3 1 3 1 2 2 4 4
1 1 6 4 4 2 2 2 2 2 2 2 3 3 2 2 3 1 2 2 3 3 2 1 3 3 4 4 4 5 4 3 2 1 5 4 4 1 1 1 2 2 2 2 2 3 4 4 4 5 5 4 4 5
1 3 6 5 3 2 2 2 2 2 1 3 2 3 2 3 2 1 3 2 2 4 3 2 3 2 4 4 4 5 4 0 2 4 4 3 2 2 1 0 0 1 2 2 2 2 2 3 3 3 5 7 8 7
3 3 6 5 1 1 1 2 1 2 1 2 2 2 1 1 0 2 3 4 3 3 2 3 4 3 2 1 1 2 4 4 3 3 3 2 2 2 2 2 2 3 3 3 4 4 3 3 3 5 5 7 8 8
4 3 4 5 4 2 4 3 2 2 2 2 1 2 2 2 4 2 1 2 4 5 5 4 3 4 4 4 3 3 3 2 4 5 6 5 6 5 3 2 2 2 5 5 4 2 4 5 4 4 6 7 8 9
Wind_Direction
185 186 182 178 177 176 176 175 166 159 157 156 155 148 156 143 125 105 214 35 126 153 271 170 335 240 343 14 325 306 333 333 344 23 327 284 294 298 305 156 173 156 141 170 196 299 309 342 315 26 320 310 325 340
184 183 181 176 175 174 172 171 165 160 155 164 163 142 171 155 135 114 101 350 55 93 205 339 246 225 40 336 241 303 301 5 357 17 337 309 290 314 294 134 239 186 160 186 178 229 305 304 322 323 288 284 338 31
182 179 178 173 171 171 169 166 164 160 161 164 145 161 172 158 135 115 129 141 64 80 352 351 225 178 152 185 27 270 11 29 339 228 260 269 275 331 330 360 296 301 51 103 57 335 347 337 351 17 353 45 27 54
177 178 176 172 169 168 166 165 163 162 163 152 138 172 169 171 168 121 108 145 91 128 114 274 38 200 83 143 230 223 293 296 251 222 222 250 271 32 307 288 309 248 350 58 325 316 306 38 24 356 37 51 62 55
176 175 174 167 167 165 164 162 159 152 148 144 147 170 151 126 115 82 75 43 128 125 201 269 33 272 287 239 259 252 255 300 276 270 212 247 339 328 248 273 338 360 314 1 239 327 51 18 10 10 49 42 42 73
171 172 171 166 165 163 159 156 150 146 144 144 158 159 158 136 130 64 31 321 63 110 92 357 262 7 340 19 65 340 250 261 272 303 304 351 61 305 331 291 32 288 334 315 307 316 62 73 30 350 40 33 43 63
169 171 167 162 162 158 154 150 146 141 146 150 155 157 149 131 74 119 180 211 136 91 84 341 340 308 151 103 157 29 3 58 341 349 5 356 318 349 348 267 321 293 301 8 1 332 41 19 53 341 55 40 46 62
167 166 162 162 160 153 150 147 142 142 148 148 141 148 132 101 105 15 335 53 85 90 73 99 273 21 13 75 335 49 152 199 37 19 22 39 317 18 335 276 336 356 333 19 4 7 268 130 48 31 33 45 56 46
165 163 160 160 156 150 148 145 142 143 137 138 124 111 74 49 72 172 17 73 51 119 131 92 145 257 346 50 117 25 69 317 284 79 342 67 309 61 229 267 330 339 9 299 336 25 46 65 29 22 28 28 62 6
165 163 159 156 152 149 147 145 143 138 135 128 76 69 58 209 298 20 4 31 17 338 35 154 244 249 33 358 310 60 27 100 81 258 30 58 264 264 266 264 273 332 337 342 62 22 17 33 42 6 50 295 339 332
161 160 158 152 151 148 146 144 141 131 120 68 104 104 108 355 54 29 44 81 327 356 26 204 161 173 323 84 237 30 188 323 56 264 107 325 329 264 337 322 333 328 318 334 107 134 183 158 140 68 31 17 6 353
160 159 157 151 150 147 146 145 141 114 149 164 130 98 65 48 36 90 278 339 90 227 262 138 217 174 297 77 86 329 117 37 246 289 70 359 254 272 333 307 307 329 330 341 28 55 37 61 47 86 61 12 2 320
156 157 155 150 150 148 147 149 134 120 110 48 55 65 70 312 36 140 195 285 300 186 205 157 124 149 6 51 58 60 66 227 65 39 205 227 279 297 294 287 308 334 331 65 40 53 69 65 61 61 38 356 330 15
153 156 151 149 148 148 148 141 135 108 84 101 132 167 152 268 250 188 175 176 214 110 143 121 100 121 229 60 147 70 252 49 39 46 241 257 262 287 313 293 132 45 65 80 63 45 56 71 56 38 36 1 11 25
151 150 146 147 147 145 141 143 117 64 91 120 93 210 204 204 55 283 172 76 260 135 105 67 46 87 354 78 33 96 25 300 194 221 229 241 250 292 3 12 43 61 55 58 39 52 47 53 76 61 19 19 33 23
141 138 145 148 144 138 137 122 57 78 51 96 64 81 300 60 340 330 155 138 195 118 57 50 114 66 291 133 80 215 121 217 238 210 230 164 316 354 22 33 64 102 93 84 65 65 63 49 45 25 1 25 15 18
131 89 148 143 137 132 132 88 71 52 127 69 288 277 154 85 154 192 152 190 137 97 193 119 95 199 98 47 290 192 200 218 210 256 260 178 153 153 145 80 56 65 71 63 65 52 49 13 28 43 32 348 354 357
115 139 139 135 128 118 43 58 84 95 96 166 138 232 90 84 124 196 208 155 119 155 139 205 129 113 177 175 265 229 201 257 172 134 103 37 66 61 70 97 76 75 78 73 67 54 43 40 48 26 352 338 331 349
142 137 135 134 121 100 105 45 81 116 106 145 318 26 67 130 281 49 100 89 107 138 111 48 99 194 221 205 181 200 174 162 151 115 60 19 57 82 80 76 74 71 71 57 48 62 71 53 40 336 329 338 344 318
132 131 132 116 79 93 91 42 68 106 156 198 74 58 104 121 214 53 48 51 97 95 35 200 212 217 166 181 232 146 140 149 129 99 42 18 7 59 63 78 87 73 71 46 51 42 24 16 11 0 346 350 5 356
118 135 114 73 55 56 83 102 51 138 133 103 205 100 116 12 52 74 232 342 51 205 245 215 150 272 64 53 46 14 74 150 152 148 148 138 11 80 92 76 69 62 65 41 35 2 23 24 348 352 355 359 354 337
120 130 87 64 85 54 79 344 118 141 73 171 65 107 85 76 137 221 182 68 230 226 183 160 165 142 86 57 50 47 22 89 67 87 92 113 123 111 72 42 73 80 71 44 36 31 11 358 353 355 360 345 336 324
122 91 67 77 89 55 25 45 79 25 107 221 23 65 21 13 234 9 194 215 242 242 213 111 124 102 106 81 93 62 49 83 89 88 92 94 95 90 88 76 50 86 86 47 22 27 15 350 344 349 333 324 331 338
65 63 94 86 79 111 59 30 50 83 67 53 75 98 242 210 301 58 242 241 251 354 48 88 134 99 68 67 65 61 52 81 99 83 84 108 109 108 103 85 66 58 53 64 22 5 349 350 339 338 337 337 348 351
99 64 91 52 24 110 102 80 32 65 126 178 106 242 235 94 103 220 232 245 150 61 2 21 87 79 113 105 118 102 25 99 126 113 52 93 113 108 95 91 81 56 19 47 19 3 334 329 349 354 350 348 350 352
88 30 130 180 145 143 170 141 181 167 134 122 200 242 56 100 123 240 217 189 127 154 188 127 129 118 81 53 138 146 127 51 99 93 64 56 75 124 141 142 131 74 32 85 88 9 354 343 325 331 330 343 349 347
126 210 265 277 118 121 101 63 86 109 140 155 177 148 116 173 233 217 177 359 129 252 55 46 357 358 134 125 98 93 93 81 81 105 104 78 64 47 62 128 147 204 329 35 129 169 248 281 296 341 343 326 293 294
150 164 146 209 76 3 133 114 139 181 175 219 115 178 185 200 221 110 170 56 134 72 70 22 40 50 71 76 87 113 103 104 96 96 91 78 64 60 52 46 354 54 15 300 241 241 223 284 324 311 285 293 299 308
76 322 90 60 64 45 54 74 152 125 75 102 153 195 187 157 203 166 193 138 43 82 79 97 47 61 68 68 59 43 93 139 135 142 158 145 169 241 11 358 355 348 5 359 347 349 129 137 140 98 349 313 285 293
205 313 97 64 76 77 36 357 122 145 78 130 127 102 52 328 252 207 91 82 125 162 187 154 137 131 128 122 115 78 35 38 34 170 150 171 183 178 275 14 19 4 15 44 31 359 22 39 23 22 11 356 357 350
153 83 78 53 74 338 68 99 85 86 83 75 19 86 147 209 307 282 135 147 124 114 118 135 111 160 151 151 141 135 126 88 91 96 86 103 138 154 142 43 9 100 114 125 122 91 76 55 34 4 14 7 347 340
43 87 119 110 172 139 207 241 160 88 63 66 60 82 85 83 231 259 205 113 105 122 162 145 147 170 183 104 104 83 78 115 128 129 153 146 149 156 134 147 145 149 147 113 88 82 79 72 34 25 3 337 323 319
93 80 88 110 115 208 216 177 138 117 92 97 110 177 204 190 184 165 269 153 158 166 163 157 119 117 138 135 123 120 117 135 185 183 180 145 126 128 127 127 134 125 95 85 75 74 62 50 27 349 323 317 314 312